Regional Weather Roundup
Issued by NWS

Home | Current Version | Previous Version | Graphics & Text | Print | Product List | Glossary Off
Versions: 1 2 3 4 5 6 7 8 9 10 11 12 13 14 15 16 17 18 19 20 21 22 23 24 25 26 27 28 29 30 31 32 33 34 35 36 37 38 39 40 41 42 43 44 45 46 47 48 49 50

679
ASUS43 KDTX 222201
RWRMI
MICHIGAN HOURLY REGIONAL WEATHER ROUNDUP
NATIONAL WEATHER SERVICE DETROIT/PONTIAC MI
600 PM EDT SAT APR 22 2017

NOTE: "FAIR" INDICATES FEW OR NO CLOUDS BELOW 12,000 FEET WITH NO
SIGNIFICANT WEATHER AND/OR OBSTRUCTION TO VISIBILITY.

MIZ047>049-052>055-059>063-066>070-074>076-081>083-222300-
SOUTHEAST LOWER MICHIGAN

CITY           SKY/WX    TMP DP  RH WIND       PRES   REMARKS
ADRIAN         CLOUDY    60  35  39 E10       30.10S
ALMA           SUNNY     60  30  31 CALM      30.13S
ANN ARBOR      SUNNY     61  32  33 N8        30.10S
BAD AXE        SUNNY     55  18  23 NE7       30.14S
CARO           SUNNY     56  31  38 NE7       30.13S
DETROIT CITY   SUNNY     57  34  41 E9        30.11S
DETROIT        PTSUNNY   60  32  34 NE14      30.11S
FLINT          SUNNY     59  29  31 VRB7      30.13S
GROSSE ILE     MOSUNNY   56  34  43 NE8       30.10S
HILLSDALE      SUNNY     59  30  33 NE9       30.10S
HOWELL         SUNNY     58  25  28 NE7       30.12R

CITY           SKY/WX    TMP DP  RH WIND       PRES   REMARKS
JACKSON        SUNNY     60  30  32 N9        30.11F
LAMBERTVILLE   MOSUNNY   55  37  50 E8        30.11S
LANSING        SUNNY     60  27  28 E8        30.14S
LAPEER         FAIR      57  29  34 NE6       30.13S
MASON          SUNNY     58  33  39 NE7       30.13S
MONROE         CLOUDY    57  34  41 E10       30.10S
PONTIAC        PTSUNNY   59  27  29 NE7       30.10S
PORT HOPE        N/A     46  33  60 E3        30.14S
PORT HURON     SUNNY     52  32  46 NE12      30.13F
TRI CITIES     SUNNY     59  33  37 SE7       30.13F
MIDLAND        FAIR      61  33  34 E5        30.11F
TROY           SUNNY     60  28  30 N9        30.13S
SAGINAW HB     SUNNY     59  25  27 NE8       30.13S
$$
MIZ043>046-050>051-056>058-064>065-071>073-077>080-222300-
SOUTHWEST LOWER MICHIGAN

CITY           SKY/WX    TMP DP  RH WIND       PRES   REMARKS
BATTLE CREEK   SUNNY     61  29  29 NE8       30.12F
BENTON HARBOR  MOSUNNY   52  28  39 N9        30.15R
BIG RAPIDS     SUNNY     62  19  19 N6        30.10F
COLDWATER      SUNNY     58  31  36 NE12      30.11S
FREMONT        FAIR      61  27  27 NW13      30.11S
HOLLAND        SUNNY     56  30  37 NW12      30.15S
GRAND RAPIDS   MOSUNNY   64  28  25 N3        30.12S
IONIA          FAIR      60  31  33 E7        30.12S
KALAMAZOO      SUNNY     61  24  24 NE8       30.13S
LUDINGTON      SUNNY     56  26  31 NW6       30.15S
MARSHALL       SUNNY     60  28  29 NE6       30.11S
MOUNT PLEASANT SUNNY     62  25  24 CALM      30.11S
MUSKEGON       SUNNY     58  27  30 W10       30.14S
SOUTH HAVEN    CLOUDY    51  29  41 N14       30.15R
$$
MIZ016>042-222300-
NORTHERN LOWER MICHIGAN

CITY           SKY/WX    TMP DP  RH WIND       PRES   REMARKS
ALPENA         SUNNY     59  29  31 SE10      30.10F
BEAVER ISLAND  SUNNY     55  21  26 SW10      30.12F
BELLAIRE       SUNNY     58  19  22 W6        30.14S
CADILLAC       SUNNY     61  19  19 N3        30.10F
CHARLEVOIX     SUNNY     56  25  29 W7        30.16F
FRANKFORT      SUNNY     55  24  30 W6        30.15S
GAYLORD        SUNNY     60  20  21 VRB3      30.10F
GRAYLING       SUNNY     63  26  24 NW8       30.10F
HARBOR SPRINGS SUNNY     45  31  58 SW5       30.14S
HOUGHTON LAKE  SUNNY     62  25  24 SW6       30.10F
MANISTEE       SUNNY     56  26  31 NW9       30.15F
OSCODA         SUNNY     52  23  31 S5        30.13S
PELLSTON       SUNNY     60  21  22 VRB7      30.11F
ROGERS CITY    SUNNY     55  24  29 E5        30.11F
TRAVERSE CITY  SUNNY     56  27  32 NE6       30.12F
$$
MIZ007>008-015-222300-
EASTERN UPPER MICHIGAN

CITY           SKY/WX    TMP DP  RH WIND       PRES   REMARKS
KINROSS        SUNNY     61  28  28 W9        30.08F
MACKINAC ISLAN SUNNY     52  27  37 SW12G17   30.10F
NEWBERRY       SUNNY     58  29  32 S14G22    30.07S
S. S. MARIE    SUNNY     63  28  26 W7        30.06F
MUNISING         N/A     54  29  38 NW9       30.02F
$$
MIZ004>006-011>014-085-222300-
CENTRAL UPPER MICHIGAN

CITY           SKY/WX    TMP DP  RH WIND       PRES   REMARKS
MANISTIQUE     SUNNY     45  32  60 S12G18    30.09F
ESCANABA       SUNNY     52  31  44 S8G16     30.09F
MENOMINEE      SUNNY     62  27  26 S14       30.09F
SAWYER-GWINN   MOSUNNY   66  30  26 NW13G18   30.04S
$$
MIZ001>003-009>011-084-222300-
WESTERN UPPER MICHIGAN

CITY           SKY/WX    TMP DP  RH WIND       PRES   REMARKS
IRON MOUNTAIN  SUNNY     68  22  17 W9        30.04F
HOUGHTON       SUNNY     64  30  27 W23G31    30.02F
COPPER HARBOR    N/A     64  29  26 NW13G26   29.99F
IRONWOOD       MOSUNNY   67  29  24 W22       30.04F
$$

ABBREVIATIONS USED IN REMARKS
   TC - TEMPERATURE IN CELSIUS
  WCI - WIND CHILL INDEX
   HX - HEAT INDEX
  VSB - VISIBILITY





USA.gov is the U.S. government's official web portal to all federal, state and local government web resources and services.